Location: Unspecified
(44.0704°N, 88.6889°W)
Time: 20:32:21
(UTC+02:00)

Transit 2A - Pass Details

Date: 20 June 2019
Orbit: 594 x 965 km, 66.7° (Epoch: 15 July)

Event Time Altitude Azimuth Distance (km) Brightness Sun altitude
Rises 15:34:05 0° 333° (NNW) 3,521 9.2 33.3°
Reaches altitude 10° 15:37:29 10° 351° (N) 2,512 8.7 33.9°
Maximum altitude 15:41:30 19° 35° (NE) 1,875 8.7 34.7°
Drops below altitude 10° 15:45:15 10° 80° (E) 2,329 9.8 35.3°
Sets 15:48:15 0° 98° (E) 3,177 10.2 35.9°
